Location: Baix
(44.7118°N, 4.7648°E)
Time: 11:26:14
(UTC+00:00)

Transit 4A - Visible Passes

Search period start: 30 November 2020 00:00
Search period end: 10 December 2020 00:00
Orbit: 862 x 982 km, 66.8° (Epoch: 29 November)

Date Brightness Start Highest point End Pass type
(mag) Time Alt. Az. Time Alt. Az. Time Alt. Az.
30 Nov 10.3 06:15:39 10° SSE 06:20:58 30° ESE 06:26:23 10° NE visible
30 Nov 9.7 17:02:29 10° NW 17:08:10 36° WSW 17:13:41 10° S visible
01 Dec 9.5 06:24:11 10° S 06:30:06 43° ESE 06:36:05 10° NE visible
01 Dec 10.5 17:12:19 10° NW 17:17:14 24° WSW 17:22:02 10° SSW visible
02 Dec 11.0 17:22:32 10° WNW 17:26:13 16° WSW 17:29:51 10° SW visible
03 Dec 11.1 04:59:37 10° SE 05:03:08 15° ESE 05:06:40 10° ENE visible
03 Dec 11.5 17:34:56 10° W 17:35:08 10° W 17:35:21 10° W visible
04 Dec 10.5 05:07:18 10° SSE 05:12:07 23° ESE 05:16:59 10° NE visible
05 Dec 9.8 05:15:36 10° S 05:21:11 34° ESE 05:26:51 10° NE visible
06 Dec 9.0 05:24:17 10° S 05:30:19 49° ESE 05:36:28 10° NE visible
07 Dec 11.0 03:52:23 10° ESE 03:54:21 11° E 03:56:20 10° E visible
07 Dec 8.4 05:33:15 10° SSW 05:39:33 70° ESE 05:45:57 10° NE visible
08 Dec 10.5 03:59:12 10° SE 04:03:17 18° ESE 04:07:25 10° ENE visible
08 Dec 8.0 05:42:29 10° SSW 05:48:51 85° WNW 05:55:20 10° NNE visible
09 Dec 9.9 04:07:10 10° SSE 04:12:18 27° ESE 04:17:31 10° NE visible
09 Dec 8.0 05:51:56 10° SW 05:58:14 62° NW 06:04:38 10° NNE visible
